Date String (YYYY-MM-DD hh:mm:ss) UTC,Instrument flags,absolute air pressure of the measurement (hPa),sample flow rate (lpm),inlet stack bypass flow (lpm),air temperature of the measurement (°C),ambient temperature measured by the external sensor (°C),aerosol sample conditioner tube jacket temperature (°C),OPC LED temperature (°C),internal box temperature (°C),relative humidity of the measurement (%),span deviation,mass concentration of particles derived from Lorenz-Mie calculation of OPC scattering (μg/m³),mass concentration of particles derived from Lorenz-Mie calculation of OPC scattering (μg/m³),mass concentration of particles derived from Lorenz-Mie calculation of OPC scattering (μg/m³)
DateTimeUTC,F1_M11,P_M11,Q1_M11,Q2_M11,T1_M11,T2_M11,T3_M11,T4_M11,T5_M11,U1_M11,ZSPAN_M11,X2_M11,X0_M11,X1_M11
2023-08-03 03:00:00,SystemResetWarning,0834.9,5.00,000.00,033.1,027.7,000.0,040.3,032.0,34.4,0000.0,0003.81,0012.15,0003.05
2023-08-03 03:01:00,SystemResetWarning,0834.7,5.01,000.00,033.1,027.9,000.0,040.4,032.0,34.3,0000.0,0003.82,0012.25,0003.07
2023-08-03 03:02:00,SystemResetWarning,0834.7,5.00,000.00,033.1,028.1,000.0,040.5,032.0,34.3,0000.0,0003.85,0012.68,0003.08
2023-08-03 03:03:00,SystemResetWarning,0834.8,5.00,000.00,033.0,028.2,000.0,040.5,032.1,34.5,0000.0,0003.88,0012.70,0003.10
2023-08-03 03:04:00,SystemResetWarning,0835.0,4.98,000.00,033.0,027.2,000.0,040.4,032.0,34.6,0000.0,0003.89,0011.87,0003.11
2023-08-03 03:05:00,SystemResetWarning,0834.9,5.01,000.00,033.0,025.6,000.0,040.3,031.7,34.6,0000.0,0003.88,0010.93,0003.12
2023-08-03 03:06:00,SystemResetWarning,0834.8,5.01,000.00,032.9,025.0,000.0,040.2,031.6,34.7,0000.0,0003.91,0010.63,0003.14
2023-08-03 03:07:00,SystemResetWarning,0834.7,4.98,000.00,032.6,025.2,000.0,040.2,031.3,35.1,0000.0,0003.89,0010.38,0003.15
2023-08-03 03:08:00,SystemResetWarning,0834.7,5.01,000.00,032.5,025.6,000.0,040.2,031.4,35.6,0000.0,0003.86,0010.00,0003.17
2023-08-03 03:09:00,SystemResetWarning,0834.7,5.01,000.00,032.7,026.1,000.0,040.3,031.6,35.5,0000.0,0003.90,0009.94,0003.19
2023-08-03 03:10:00,SystemResetWarning,0834.8,5.01,000.00,032.9,026.5,000.0,040.3,031.8,35.0,0000.0,0003.90,0009.70,0003.20
2023-08-03 03:11:00,SystemResetWarning,0835.3,4.98,000.00,033.1,026.9,000.0,040.3,032.0,34.5,0000.0,0003.92,0010.30,0003.22
2023-08-03 03:12:00,SystemResetWarning,0835.4,4.99,000.00,033.3,027.3,000.0,040.3,032.0,34.4,0000.0,0003.93,0011.09,0003.24
2023-08-03 03:13:00,SystemResetWarning,0835.1,5.02,000.00,033.3,027.6,000.0,040.4,032.0,34.3,0000.0,0003.96,0011.28,0003.26
2023-08-03 03:14:00,SystemResetWarning,0834.9,5.00,000.00,033.4,027.8,000.0,040.5,032.1,34.2,0000.0,0003.97,0011.50,0003.28
2023-08-03 03:15:00,SystemResetWarning,0834.9,5.00,000.00,033.3,028.0,000.0,040.6,032.1,34.3,0000.0,0004.01,0011.82,0003.30
2023-08-03 03:16:00,SystemResetWarning,0834.9,5.00,000.00,033.3,028.2,000.0,040.6,032.1,34.4,0000.0,0004.03,0011.81,0003.32
2023-08-03 03:17:00,SystemResetWarning,0834.9,4.99,000.00,033.3,027.8,000.0,040.6,032.2,34.4,0000.0,0004.00,0011.52,0003.34
2023-08-03 03:18:00,SystemResetWarning,0835.3,4.99,000.00,033.3,026.1,000.0,040.5,031.9,34.4,0000.0,0003.99,0011.09,0003.35
2023-08-03 03:19:00,SystemResetWarning,0834.8,5.01,000.00,033.2,025.1,000.0,040.4,031.7,34.5,0000.0,0004.00,0011.47,0003.37
2023-08-03 03:20:00,SystemResetWarning,0834.7,4.99,000.00,033.0,025.1,000.0,040.4,031.4,34.9,0000.0,0004.04,0011.44,0003.40
2023-08-03 03:21:00,SystemResetWarning,0834.7,5.00,000.00,032.8,025.4,000.0,040.4,031.4,35.4,0000.0,0004.11,0011.14,0003.43
2023-08-03 03:22:00,SystemResetWarning,0835.0,5.02,000.00,032.9,025.9,000.0,040.5,031.6,35.1,0000.0,0004.18,0011.39,0003.46
2023-08-03 03:23:00,SystemResetWarning,0834.8,4.99,000.00,033.1,026.4,000.0,040.5,031.8,34.8,0000.0,0004.23,0011.01,0003.49
2023-08-03 03:24:00,SystemResetWarning,0834.7,4.99,000.00,033.2,026.8,000.0,040.5,031.9,34.6,0000.0,0004.23,0010.88,0003.51
2023-08-03 03:25:00,SystemResetWarning,0834.7,5.01,000.00,033.3,027.2,000.0,040.5,032.0,34.5,0000.0,0004.23,0011.10,0003.52
2023-08-03 03:26:00,SystemResetWarning,0834.7,5.01,000.00,033.3,027.5,000.0,040.6,032.0,34.4,0000.0,0004.26,0010.74,0003.55
2023-08-03 03:27:00,SystemResetWarning,0834.7,4.99,000.00,033.3,027.7,000.0,040.6,032.0,34.3,0000.0,0004.28,0010.84,0003.56
2023-08-03 03:28:00,SystemResetWarning,0835.1,4.99,000.00,033.2,028.0,000.0,040.7,032.1,34.4,0000.0,0004.35,0011.03,0003.59
2023-08-03 03:29:00,SystemResetWarning,0835.0,5.00,000.00,033.2,028.2,000.0,040.7,032.1,34.5,0000.0,0004.38,0011.06,0003.61
2023-08-03 03:30:00,SystemResetWarning,0834.6,5.00,000.00,033.2,028.1,000.0,040.7,032.2,34.6,0000.0,0004.40,0010.55,0003.62
2023-08-03 03:31:00,SystemResetWarning,0834.9,5.00,000.00,033.2,026.7,000.0,040.6,032.0,34.6,0000.0,0004.37,0010.37,0003.61
2023-08-03 03:32:00,SystemResetWarning,0834.8,5.01,000.00,033.1,025.9,000.0,040.5,031.9,34.6,0000.0,0004.34,0010.39,0003.59
2023-08-03 03:33:00,SystemResetWarning,0834.7,4.99,000.00,032.9,025.9,000.0,040.5,031.6,35.1,0000.0,0004.32,0010.07,0003.58
2023-08-03 03:34:00,SystemResetWarning,0834.9,5.02,000.00,032.8,026.2,000.0,040.5,031.6,35.3,0000.0,0004.33,0009.54,0003.59
2023-08-03 03:35:00,SystemResetWarning,0834.9,5.00,000.00,033.0,026.6,000.0,040.5,031.8,35.0,0000.0,0004.34,0010.10,0003.60
2023-08-03 03:36:00,SystemResetWarning,0834.7,4.98,000.00,033.2,027.0,000.0,040.5,032.0,34.7,0000.0,0004.43,0010.51,0003.60
2023-08-03 03:37:00,SystemResetWarning,0834.9,4.99,000.00,033.2,027.3,000.0,040.6,032.0,34.5,0000.0,0004.46,0011.39,0003.61
2023-08-03 03:38:00,SystemResetWarning,0835.0,5.02,000.00,033.3,027.6,000.0,040.6,032.1,34.4,0000.0,0004.51,0011.66,0003.63
2023-08-03 03:39:00,SystemResetWarning,0835.1,5.00,000.00,033.3,027.9,000.0,040.7,032.1,34.3,0000.0,0004.53,0011.85,0003.64
2023-08-03 03:40:00,SystemResetWarning,0834.9,5.00,000.00,033.2,028.1,000.0,040.7,032.1,34.3,0000.0,0004.57,0011.94,0003.66
2023-08-03 03:41:00,SystemResetWarning,0834.9,5.00,000.00,033.2,028.1,000.0,040.7,032.2,34.2,0000.0,0004.60,0012.48,0003.67
2023-08-03 03:42:00,SystemResetWarning,0834.7,4.98,000.00,033.2,026.9,000.0,040.6,032.1,34.3,0000.0,0004.63,0012.50,0003.70
2023-08-03 03:43:00,SystemResetWarning,0834.7,5.00,000.00,033.2,025.4,000.0,040.5,031.9,34.4,0000.0,0004.66,0012.66,0003.73
2023-08-03 03:44:00,SystemResetWarning,0834.8,5.00,000.00,033.1,025.1,000.0,040.4,031.7,34.5,0000.0,0004.68,0013.07,0003.75
2023-08-03 03:45:00,SystemResetWarning,0834.7,5.00,000.00,032.8,025.3,000.0,040.4,031.4,35.2,0000.0,0004.69,0013.04,0003.76
2023-08-03 03:46:00,SystemResetWarning,0834.7,5.02,000.00,032.8,025.7,000.0,040.5,031.5,35.5,0000.0,0004.72,0012.25,0003.77
2023-08-03 03:47:00,SystemResetWarning,0834.8,4.99,000.00,032.9,026.2,000.0,040.5,031.7,35.2,0000.0,0004.72,0011.81,0003.79
2023-08-03 03:48:00,SystemResetWarning,0835.3,5.01,000.00,033.1,026.7,000.0,040.5,031.9,34.7,0000.0,0004.69,0011.12,0003.80
2023-08-03 03:49:00,SystemResetWarning,0834.8,4.99,000.00,033.2,027.0,000.0,040.5,032.0,34.5,0000.0,0004.66,0011.29,0003.80
2023-08-03 03:50:00,SystemResetWarning,0834.8,5.00,000.00,033.3,027.3,000.0,040.5,032.0,34.4,0000.0,0004.66,0011.16,0003.81
2023-08-03 03:51:00,SystemResetWarning,0834.9,5.01,000.00,033.3,027.6,000.0,040.6,032.0,34.3,0000.0,0004.65,0011.10,0003.82
2023-08-03 03:52:00,SystemResetWarning,0834.9,5.01,000.00,033.3,027.9,000.0,040.6,032.1,34.1,0000.0,0004.68,0011.28,0003.84
2023-08-03 03:53:00,SystemResetWarning,0834.9,5.00,000.00,033.3,028.1,000.0,040.7,032.1,34.2,0000.0,0004.74,0012.54,0003.86
2023-08-03 03:54:00,SystemResetWarning,0835.0,4.98,000.00,033.2,028.2,000.0,040.7,032.2,34.0,0000.0,0004.78,0012.58,0003.90
2023-08-03 03:55:00,SystemResetWarning,0835.0,5.00,000.00,033.2,028.4,000.0,040.8,032.2,33.9,0000.0,0004.78,0012.92,0003.91
2023-08-03 03:56:00,SystemResetWarning,0835.0,5.00,000.00,033.2,027.8,000.0,040.7,032.2,33.8,0000.0,0004.82,0013.59,0003.94
2023-08-03 03:57:00,SystemResetWarning,0835.0,5.00,000.00,033.2,026.1,000.0,040.6,032.0,33.6,0000.0,0004.83,0013.93,0003.96
2023-08-03 03:58:00,SystemResetWarning,0834.9,5.00,000.00,033.1,025.2,000.0,040.5,031.8,33.7,0000.0,0004.80,0013.53,0003.98
2023-08-03 03:59:00,SystemResetWarning,0834.9,5.01,000.00,032.9,025.2,000.0,040.4,031.5,34.3,0000.0,0004.82,0013.21,0004.00
